Location: Oxted
(51.2333°N, 0.0167°W)
Time: 22:40:37
(UTC+00:00)

Daily predictions for brighter satellites

Satellite Brightness Start Highest point End
(mag) Time Altitude Azimuth Time Altitude Azimuth Time Altitude Azimuth
Cosmos 676 Rocket 4.3 17:52:38 10° SSW 17:57:48 74° WNW 18:03:01 10° NNE
Cosmos 540 Rocket 4.1 17:55:17 10° NNW 18:00:20 61° WSW 18:05:21 10° S
Cosmos 1674 Rocket 3.8 17:57:38 10° N 18:01:56 50° ENE 18:06:15 10° SSE
Cosmos 1766 4.2 17:58:55 10° SSE 18:02:13 26° E 18:05:34 10° NNE
Meteor 2-10 4.4 17:58:21 10° SSE 18:03:43 49° E 18:08:56 10° NNE
ARGOS 4.3 17:59:12 10° S 18:04:23 50° W 18:09:38 10° NNW
ATLAS 2AS CENTAUR R/B 4.1 17:58:48 10° WNW 18:05:32 33° NNW 18:11:58 10° NE
YAOGAN 1 3.0 18:03:27 10° SE 18:07:31 42° ENE 18:11:37 10° N
Okean O Rocket 2.1 18:07:20 10° SE 18:11:24 39° ENE 18:15:30 10° N
Cosmos 2084 3.4 18:08:25 10° SW 18:12:14 74° NW 18:16:05 10° NE
SKYMED 2 3.5 18:08:59 10° NNE 18:13:21 70° ESE 18:17:41 10° S
SAR-Lupe-3 4.5 18:09:48 10° SSE 18:13:21 76° ENE 18:16:57 10° NNW
Meteor 2-5 Rocket 4.3 18:08:58 10° N 18:14:03 35° ENE 18:19:04 10° SE
Nadezhda 4 Rocket 4.3 18:10:18 10° SSE 18:16:13 44° E 18:22:09 10° NNE
USA-17 4.5 18:14:39 10° NW 18:17:50 85° SW 18:21:45 10° SE
Cosmos 2285 Rocket 4.0 18:14:06 10° NNW 18:20:27 68° ENE 18:26:49 10° SE
PSLV R/B 3.7 18:19:57 10° SSE 18:23:37 82° WSW 18:27:18 10° NNW
Cosmos 1726 2.1 18:20:41 10° S 18:24:15 55° E 18:27:50 10° NNE
Cosmos 2322 Rocket 3.3 18:20:22 10° SSE 18:24:29 21° E 18:28:38 10° NE
USA 186 3.5 18:22:41 12° E 18:24:30 18° ENE 18:26:50 10° NNE
Cosmos 841 Rocket 4.3 18:22:03 10° NNW 18:27:08 56° WSW 18:32:08 10° S
Cosmos 1378 Rocket 3.5 18:24:08 10° N 18:28:33 88° E 18:32:53 10° S
Cosmos 1470 3.9 18:26:05 10° SE 18:29:04 22° E 18:32:04 10° NE
Cosmos 1975 Rocket 4.1 18:25:47 10° N 18:29:33 26° ENE 18:33:09 11° SE
CZ-4B R/B 3.2 18:24:30 10° SSE 18:29:55 79° ENE 18:35:27 10° NNW
Cosmos 1980 Rocket 2.3 18:24:26 10° SSW 18:30:05 87° WNW 18:35:45 10° NNE
Timation 2 Rocket 4.5 18:23:46 10° NW 18:30:11 65° WSW 18:36:17 10° SSE
ARGOS Delta rocket 4.0 18:25:20 10° NNE 18:30:35 61° E 18:35:32 10° S
DMSP B5D2-2 4.2 18:26:04 10° NNE 18:31:23 85° WNW 18:36:40 10° SSW
Cosmos 2292 Rocket 4.0 18:34:34 10° SSE 18:39:06 37° E 18:42:41 10° NNE
Meteor 2-14 Rocket 4.4 18:34:58 10° S 18:41:01 79° E 18:47:06 10° NNE
Cosmos 1733 Rocket 3.7 18:38:52 10° SSW 18:43:15 61° WNW 18:47:41 10° N
Cosmos 1850 Rocket 4.2 18:38:22 10° SSW 18:43:36 75° WNW 18:48:55 10° NNE
USA 215 3.3 18:37:51 10° ENE 18:44:26 87° SSE 18:51:00 10° WSW
Cosmos 2369 4.2 18:42:10 10° SW 18:47:50 64° NW 18:53:32 10° NNE
COBE Rocket 4.0 18:43:17 10° S 18:48:07 75° WSW 18:52:51 10° NNW
Cosmos 1844 Rocket 3.0 18:43:08 10° NNW 18:48:40 50° NE 18:52:59 16° ESE
Cosmos 2278 3.7 18:47:49 10° SSW 18:53:30 83° ESE 18:59:13 10° NNE
Cosmos 1943 Rocket 4.5 18:52:49 10° N 18:53:39 10° NNE 18:54:29 10° NNE
Cosmos 1570 Rocket 4.0 18:48:48 10° NNW 18:54:06 88° WSW 18:59:20 10° SSE
SL-16 R/B 2.4 18:49:02 10° S 18:54:23 45° ESE 18:59:46 10° NE
Landsat 5 4.4 18:51:05 10° NNE 18:55:03 30° E 18:58:57 10° SSE
Cosmos 1092 Rocket 4.1 18:51:38 10° SSE 18:57:41 51° E 19:03:42 10° NNE
DMSP B5D1-3 4.4 18:55:26 10° NNE 19:00:33 67° ESE 19:05:39 10° S
COSMO-SKYMED 1 3.9 18:57:12 10° N 19:01:20 42° WNW 19:05:25 10° SW
Resurs 01 Rocket 3.0 19:01:19 20° ENE 19:01:48 20° ENE 19:05:02 10° NNE
Cosmos 2278 Rocket 3.9 18:59:29 10° NNW 19:03:15 18° NNE 19:05:41 14° ENE
Meteor 2-21 Rocket 4.3 18:57:40 10° S 19:03:43 82° E 19:09:48 10° NNE
SJ-6B 3.0 19:02:07 25° SE 19:03:53 44° ENE 19:07:32 10° N
HJ-1C 4.2 19:02:09 10° S 19:05:10 48° W 19:08:12 10° NNW
Gbstr 26 Del rocket 4.5 18:58:47 10° WSW 19:06:23 77° SSE 19:12:38 19° ENE
Cosmos 1437 Rocket 2.5 19:02:50 10° S 19:06:34 74° E 19:10:19 10° NNE
H-2A R/B 3.6 19:07:12 22° ENE 19:07:12 22° ENE 19:10:11 10° N
Cosmos 2263 Rocket 3.8 19:02:31 10° NW 19:07:39 35° WSW 19:12:45 10° S
Meteor 1-24 Rocket 3.5 19:04:15 10° N 19:09:35 78° ENE 19:14:58 10° SSE
Resurs 1-3 4.0 19:11:26 30° ESE 19:13:03 42° ENE 19:17:13 10° N
SL-4 R/B 3.8 19:10:51 10° W 19:14:45 30° SW 19:17:51 15° SSE
STPSAT 2 (USA 217) 4.5 19:11:13 10° SSW 19:15:45 77° ESE 19:20:18 10° NNE
MetOp-A 4.3 19:17:19 29° ENE 19:17:19 29° ENE 19:20:48 10° N
Meteor 2-16 Rocket 4.4 19:11:33 10° S 19:17:42 88° E 19:23:54 10° N
Feng Yun 1-1 Rocket 4.4 19:12:27 10° S 19:17:54 71° WSW 19:23:19 10° NNW
Cosmos 2084 Rocket 3.4 19:14:12 10° NW 19:18:00 66° SW 19:19:51 29° SSE
USA 267 4.4 19:15:33 10° SSE 19:21:33 38° SW 19:27:35 10° WNW
Okean-O 2.6 19:20:30 28° SE 19:22:43 64° ENE 19:27:07 10° N
Cosmos 2208 Rocket 4.4 19:17:23 10° NNW 19:22:44 68° WSW 19:28:06 10° SSE
Cosmos 1844 3.6 19:17:42 10° NNW 19:23:17 71° ENE 19:26:12 29° SE
Cosmos 1486 Rocket 4.4 19:19:00 10° S 19:23:55 40° ESE 19:28:52 10° NE
CZ-4 R/B 2.4 19:20:01 10° S 19:24:04 49° W 19:28:09 10° NNW
OBJECT-B 0.5 19:24:56 61° NW 19:24:56 61° NW 19:27:10 10° NNW
IGS 5A 3.3 19:24:37 30° SSE 19:26:35 74° ENE 19:30:44 10° N
DNEPR-1 R/B 4.2 19:23:16 10° S 19:27:46 44° ESE 19:30:36 24° ENE
S3M 4.5 19:22:46 10° N 19:28:34 38° ENE 19:30:10 33° E
Meteor 1-22 Rocket 4.1 19:23:34 10° S 19:29:00 84° ESE 19:34:44 10° NNE
Helios 1B 4.4 19:24:41 10° NNE 19:29:03 82° ESE 19:33:23 10° SSW
Cosmos 773 Rocket 4.5 19:24:40 10° NNW 19:29:45 43° ENE 19:31:01 37° E
Cosmos 1300 Rocket 3.6 19:30:15 39° SE 19:31:26 52° E 19:35:41 10° NNE
Cosmos 1908 Rocket 4.3 19:27:26 10° SSW 19:31:40 53° WNW 19:35:56 10° N
CSL-04 Debris 4.1 19:28:02 13° SSE 19:32:55 87° WSW 19:38:21 10° NNW
Cosmos 1428 Rocket 4.4 19:27:03 10° S 19:33:15 86° E 19:39:33 10° N
Cosmos 1627 Rocket 4.3 19:30:36 10° S 19:36:42 83° E 19:42:53 10° N
Cosmos 2195 Rocket 4.5 19:30:45 10° S 19:37:00 86° W 19:43:22 10° N
USA 81 4.0 19:32:57 10° N 19:38:16 85° W 19:43:22 11° S
Cosmos 2360 Rocket 2.3 19:33:31 10° S 19:38:54 48° ESE 19:44:18 10° NE
Cosmos 1782 Rocket 3.6 19:35:27 10° SSW 19:39:48 79° W 19:44:12 10° N
Cosmos 1025 Rocket 3.2 19:38:02 10° NNW 19:42:20 71° W 19:44:51 24° S
Cosmos 158 Rocket 4.4 19:40:05 10° NNW 19:44:41 39° NE 19:44:48 39° ENE
Okean O Rocket 3.6 19:44:07 10° SSW 19:47:51 27° W 19:51:38 10° NW
Cosmos 1417 Rocket 4.4 19:43:06 10° N 19:49:12 60° ENE 19:51:03 43° SE
Cosmos 968 Rocket 4.0 19:44:52 10° SW 19:50:04 61° WNW 19:55:16 10° NNE
Lacrosse 4 Rocket 1.6 19:47:02 10° SSW 19:50:17 54° S 19:50:17 54° S
Cosmos 2026 Rocket 4.0 19:47:14 10° SSW 19:53:18 78° WNW 19:59:24 10° N
USA 186 3.2 19:55:51 34° SW 19:56:32 39° W 19:59:44 10° NNW
ATLAS 2AS CENTAUR R/B 3.9 19:51:51 10° NW 19:58:28 34° NNE 20:01:35 24° ENE
CSL-04 Rocket 4.0 19:55:05 19° S 19:58:54 63° WSW 20:04:19 10° NNW
MOS 1 4.2 20:01:34 56° ESE 20:02:31 67° ENE 20:08:09 10° NNW
Cosmos 1553 Rocket 4.0 19:56:38 10° N 20:03:01 86° W 20:06:34 29° S
Cosmos 1470 4.3 20:01:16 10° SW 20:04:49 35° WNW 20:08:24 10° N
Landsat 7 3.9 20:04:06 48° S 20:05:21 71° WSW 20:10:06 10° NNW
deb Chang Zheng 4 3.5 20:05:56 74° NNW 20:05:56 74° NNW 20:09:44 10° NNW
Cosmos 1536 Rocket 4.0 20:01:19 10° N 20:04:43 49° NNE 20:04:43 49° NNE
Cosmos 1975 Rocket 4.4 20:03:24 10° NNW 20:07:31 39° W 20:10:19 18° SSW
Cosmos 2322 Rocket 2.3 20:02:12 10° SSW 20:07:55 79° WNW 20:13:40 10° NNE
SPOT 1/Viking Rocket 3.4 20:07:53 70° E 20:08:05 71° ENE 20:13:14 10° N
Cosmos 2237 4.3 20:03:01 10° SW 20:08:44 77° WNW 20:14:29 10° NNE
NOSS 3-4 (A) 3.8 20:03:32 10° NW 20:10:13 67° NE 20:12:04 50° E
NOSS 3-4 (C) 3.8 20:03:38 10° NW 20:10:19 66° NE 20:12:09 50° E
SPOT 3 Rocket 4.5 20:15:04 34° NE 20:15:04 34° NE 20:18:47 10° N
Cosmos 1758 4.2 20:15:55 45° NNW 20:15:55 45° NNW 20:18:54 10° N
Cosmos 1980 Rocket 4.4 20:10:29 10° W 20:14:55 23° NW 20:19:21 10° NNE
Ariane Rocket 3.4 20:16:26 49° NE 20:16:26 49° NE 20:20:41 10° N
NOSS 3-3 (A) 4.1 20:15:55 10° SSW 20:30:26 - NE 20:20:03 49° S
NOSS 3-3 (C) 4.2 20:16:01 10° SSW 20:30:32 - NE 20:19:58 46° S
Aureole 1 Rocket 3.8 20:18:45 10° SSW 20:26:02 76° ESE 20:31:43 10° NNE
USA 215 3.7 20:24:15 32° NE 20:27:17 58° N 20:33:40 10° W
USA 281 3.7 20:27:40 41° ENE 20:28:01 41° NE 20:34:06 10° NNW
Meteor 1-16 Rocket 4.2 20:30:32 74° NE 20:30:32 74° NE 20:36:02 10° NNE
Cosmos 1844 Rocket 4.0 20:27:19 10° NW 20:32:25 35° WSW 20:34:40 26° SSW
Resurs 01 Rocket 2.5 20:38:52 48° NW 20:38:52 48° NW 20:42:19 10° NNW
Cosmos 2315 Rocket 4.0 20:31:55 10° N 20:37:56 68° NE 20:37:56 68° NE
SL-16 R/B 3.4 20:33:15 10° WSW 20:38:35 40° NW 20:43:57 10° NNE
Cosmos 1943 Rocket 3.7 20:35:12 10° NNW 20:38:59 23° NNE 20:38:59 23° NNE
Terra 3.7 20:42:42 21° NNE 20:42:42 21° NNE 20:44:39 10° N
H-2A R/B 4.1 20:43:39 30° NW 20:43:39 30° NW 20:46:02 10° NNW
Cosmos 2278 Rocket 2.8 20:43:00 10° NNW 20:47:32 49° NNE 20:47:32 49° NNE
MetOp-B 4.5 20:49:52 62° NNW 20:49:52 62° NNW 20:54:19 10° NNW
Gbstr 26 Del rocket 4.4 20:46:04 10° W 20:54:04 86° N 20:55:06 71° E
Cosmos 2369 Rocket 4.2 20:55:07 10° NNW 20:58:48 17° NNE 20:58:48 17° NNE
Cosmos 2266 Rocket 4.2 21:11:31 68° WNW 21:11:31 68° WNW 21:17:42 10° N
Cosmos 1655 Rocket 4.3 21:13:41 65° NW 21:13:41 65° NW 21:19:18 10° N
Cosmos 2333 Rocket 4.0 21:18:31 22° NNE 21:18:31 22° NNE 21:20:29 10° NNE
Cosmos 2360 Rocket 3.4 21:17:47 10° WSW 21:23:03 38° NW 21:28:20 10° NNE
ATLAS 2AS CENTAUR R/B 3.3 21:43:25 10° NW 21:49:00 53° NNW 21:49:00 53° NNW
Cosmos 2322 Rocket 4.4 21:48:31 10° W 21:52:54 22° NW 21:57:18 10° NNE
USA 215 4.1 22:11:37 45° NW 22:11:37 45° NW 22:16:16 10° WNW
USA 281 4.3 22:14:33 40° WNW 22:14:33 40° WNW 22:18:51 10° NNW
Cosmos 1943 Rocket 4.2 22:18:33 10° NNW 22:20:29 23° NNW 22:20:29 23° NNW
Cosmos 2278 Rocket 4.5 22:27:33 10° NW 22:29:22 19° WNW 22:29:22 19° WNW
Cosmos 2369 Rocket 4.4 22:38:36 10° NNW 22:40:34 22° NNW 22:40:34 22° NNW
Cosmos 2219 Rocket 4.5 22:46:54 19° N 22:46:54 19° N 22:49:06 10° NNE
